Location: South Range
(44.4886°N, 65.7879°W)
Time: 22:56:50
(UTC-03:00)

Iridium 56 - Visible Passes

Search period start: 27 June 2017 00:00
Search period end: 07 July 2017 00:00
Orbit: 776 x 779 km, 86.4° (Epoch: 26 June)

Date Brightness Start Highest point End Pass type
(mag) Time Alt. Az. Time Alt. Az. Time Alt. Az.
27 Jun 8.6 04:40:19 10° E 04:42:18 12° ENE 04:44:16 10° NE visible
30 Jun 8.2 04:38:51 10° ESE 04:42:11 17° ENE 04:45:31 10° NE visible
03 Jul 7.8 04:37:59 10° SE 04:42:07 24° E 04:46:16 10° NNE visible
04 Jul 8.3 04:06:24 10° ESE 04:08:57 14° ENE 04:11:31 10° NE visible
06 Jul 7.2 04:37:28 10° SSE 04:42:06 34° E 04:46:46 10° NNE visible
